Location: Emporia
(38.4040°N, 96.1810°W)
Time: 00:03:23
(UTC-05:00)

Amateur Radio Satellites - All Passes

Search period start: 29 August 2016 23:33
Search period end: 30 August 2016 23:33
Location: Emporia, 38.4040°N, 96.1810°W

Satellite Date Start Highest point End Downlink Frequencies (MHz)
Time Altitude Azimuth
O/OREOS (USA 219) 29 Aug 23:36:42 23:40:55 35° 63° (ENE) 23:45:09 437.305
CUBEBUG 1 29 Aug 23:36:47 23:40:28 27° 69° (ENE) 23:44:11 437.445
VELOX 1 29 Aug 23:41:11 23:44:48 25° 68° (ENE) 23:48:26 145.980
SPROUT 29 Aug 23:44:51 23:46:53 13° 65° (ENE) 23:48:56 437.525
SO-50 29 Aug 23:46:03 23:50:55 81° 119° (ESE) 23:55:45 436.795
DX 1 29 Aug 23:50:33 23:53:51 21° 67° (ENE) 23:57:10 434.975-435.025
ANTELSAT 29 Aug 23:59:43 00:03:59 66° 284° (WNW) 00:08:11 437.575/2403.000
DUCHIFAT 1 30 Aug 00:03:05 00:05:20 14° 92° (E) 00:07:32 145.980
GONETS M04 30 Aug 00:04:29 00:13:23 84° 264° (W) 00:22:13
QB50P2 30 Aug 00:08:33 00:11:43 20° 94° (E) 00:14:51 145.880/145.840
JAS-2 30 Aug 00:10:38 00:15:24 19° 92° (E) 00:20:23 435.910
POLYITAN 1 30 Aug 00:11:03 00:14:13 20° 94° (E) 00:17:22 437.675
50 SAT 30 Aug 00:12:58 00:16:26 52° 74° (ENE) 00:19:55 437.505
NANOSAT C BR1 30 Aug 00:17:13 00:20:32 22° 95° (E) 00:23:50 145.865
UKube-1 30 Aug 00:25:27 00:29:28 39° 71° (ENE) 00:33:31 .
AISAT 30 Aug 00:29:25 00:33:53 89° 256° (WSW) 00:38:23 437.250
TIGRISAT 30 Aug 00:30:21 00:34:07 31° 289° (WNW) 00:37:52 435.000
AUBIESAT-1 30 Aug 00:31:07 00:34:59 26° 260° (W) 00:38:52 437.475
ESTCUBE 1 30 Aug 00:31:38 00:35:56 46° 261° (W) 00:40:17 437.505/2401.250
PHONESAT 2.4 30 Aug 00:37:23 00:39:32 18° 149° (SSE) 00:41:40 2401.200-2431.200
M-CUBED/EXP-1 PRIME 30 Aug 00:39:44 00:42:57 18° 262° (W) 00:46:12 437.505
BUGSAT 1 30 Aug 00:47:32 00:50:27 19° 94° (E) 00:53:19 437.445
DANDE 30 Aug 00:50:53 00:53:27 74° 280° (W) 00:56:17 436.750
UNISAT 6 30 Aug 01:01:00 01:03:22 15° 295° (WNW) 01:05:43 437.425
QB50P1 30 Aug 01:02:03 01:06:18 84° 105° (ESE) 01:10:29 145.935-145.965
POPSAT HIP 1 30 Aug 01:12:21 01:16:34 75° 284° (WNW) 01:20:44 437.405
CUBEBUG 1 30 Aug 01:13:02 01:16:40 25° 265° (W) 01:20:21 437.445
O/OREOS (USA 219) 30 Aug 01:16:40 01:20:04 21° 259° (W) 01:23:28 437.305
VELOX 1 30 Aug 01:17:20 01:21:08 28° 264° (W) 01:24:58 145.980
SPROUT 30 Aug 01:18:08 01:22:20 53° 260° (W) 01:26:35 437.525
Cosmos 2499 30 Aug 01:24:41 01:30:27 28° 274° (W) 01:36:19 435.465 / 435.565
DX 1 30 Aug 01:25:55 01:29:49 32° 263° (W) 01:33:46 434.975-435.025
TISAT 1 30 Aug 01:28:16 01:32:13 39° 72° (ENE) 01:36:12 437.305
SO-50 30 Aug 01:29:09 01:31:58 15° 317° (NW) 01:34:45 436.795
RS-15 30 Aug 01:29:29 01:40:45 67° 114° (ESE) 01:52:39 29.354- 29.394
DUCHIFAT 1 30 Aug 01:37:15 01:41:13 42° 287° (WNW) 01:45:08 145.980
ITUPSAT 1 30 Aug 01:43:20 01:45:07 12° 62° (ENE) 01:46:52 437.325
QB50P2 30 Aug 01:43:51 01:47:32 30° 290° (WNW) 01:51:10 145.880/145.840
POLYITAN 1 30 Aug 01:46:22 01:50:01 29° 290° (WNW) 01:53:39 437.675
NANOSAT C BR1 30 Aug 01:52:40 01:56:13 27° 290° (WNW) 01:59:44 145.865
JAS-2 30 Aug 01:53:50 02:00:50 79° 286° (WNW) 02:08:30 435.910
UKube-1 30 Aug 02:02:54 02:05:39 16° 266° (W) 02:08:25 .
GONETS M04 30 Aug 02:04:20 02:08:44 15° 284° (WNW) 02:13:08
SWISSCUBE 30 Aug 02:12:27 02:16:26 27° 68° (ENE) 02:20:24 437.505
PHONESAT 2.4 30 Aug 02:12:35 02:15:35 83° 168° (SSE) 02:18:35 2401.200-2431.200
BUGSAT 1 30 Aug 02:22:14 02:25:52 30° 289° (WNW) 02:29:26 437.445
BEESAT 30 Aug 02:28:53 02:33:11 36° 70° (ENE) 02:37:31 436.000
Gurwin Techsat 1B 30 Aug 02:34:42 02:38:53 23° 95° (E) 02:43:02 435.225
Oscar 19 30 Aug 02:42:31 02:47:41 62° 101° (E) 02:52:48 437.125/150
TISAT 1 30 Aug 03:05:24 03:08:01 16° 267° (W) 03:10:37 437.305
ITUPSAT 1 30 Aug 03:17:34 03:22:18 72° 258° (WSW) 03:27:05 437.325
KKS-1 30 Aug 03:33:11 03:36:13 18° 66° (ENE) 03:39:16 437.445
JAS-2 30 Aug 03:41:23 03:44:58 15° 301° (WNW) 03:48:41 435.910
RS-15 30 Aug 03:43:16 03:54:01 40° 318° (NW) 04:05:19 29.354- 29.394
Cosmos 2491 30 Aug 03:49:03 03:50:27 10° 57° (ENE) 03:51:51 435.465 / 435.565
PHONESAT 2.4 30 Aug 03:49:05 03:52:02 53° 360° (N) 03:54:59 2401.200-2431.200
SWISSCUBE 30 Aug 03:50:00 03:54:06 29° 263° (W) 03:58:14 437.505
AO-7 30 Aug 03:51:58 03:58:02 22° 94° (E) 04:04:03 29.400- 29.500
MOZHAYETS 4 30 Aug 03:56:29 04:00:45 40° 72° (ENE) 04:05:01
STARS 30 Aug 04:01:56 04:04:54 18° 66° (ENE) 04:07:53 437.465
ITAMSAT 1 30 Aug 04:02:25 04:07:24 46° 99° (E) 04:12:22 435.822/435.867
BEESAT 30 Aug 04:07:23 04:11:01 22° 265° (W) 04:14:41 436.000
Gurwin Techsat 1B 30 Aug 04:13:59 04:18:56 41° 290° (WNW) 04:23:52 435.225
Oscar 19 30 Aug 04:23:21 04:26:26 16° 297° (WNW) 04:29:33 437.125/150
YUBILEINY 30 Aug 05:01:13 05:04:29 13° 75° (ENE) 05:07:45 435.215
KKS-1 30 Aug 05:08:14 05:12:27 40° 261° (W) 05:16:42 437.445
CUBESAT XI-V 30 Aug 05:23:37 05:27:56 42° 72° (ENE) 05:32:19 437.345
AO-85 30 Aug 05:24:20 05:29:39 76° 119° (ESE) 05:34:43 145.980
PHONESAT 2.4 30 Aug 05:25:29 05:28:29 82° 197° (SSW) 05:31:28 2401.200-2431.200
MOZHAYETS 4 30 Aug 05:35:00 05:38:04 18° 267° (W) 05:41:07
STARS 30 Aug 05:36:45 05:40:56 40° 261° (W) 05:45:08 437.465
Cosmos 2491 30 Aug 05:40:34 05:49:20 62° 79° (E) 05:58:02 435.465 / 435.565
ITAMSAT 1 30 Aug 05:42:45 05:46:31 21° 295° (WNW) 05:50:17 435.822/435.867
AO-7 30 Aug 05:43:11 05:51:28 74° 291° (WNW) 05:59:41 29.400- 29.500
RS-15 30 Aug 06:03:29 06:11:26 19° 351° (N) 06:19:31 29.354- 29.394
BRITE-PL 30 Aug 06:11:56 06:16:31 25° 93° (E) 06:20:58 437.365/2234.400
HORYU 2 30 Aug 06:22:35 06:26:58 63° 101° (ESE) 06:31:20 437.375
NOAA 18 30 Aug 06:28:14 06:29:36 11° 90° (E) 06:30:57 137.9125
YUBILEINY 30 Aug 06:50:52 06:59:39 76° 94° (E) 07:08:28 435.215
Cubesat XI-IV 30 Aug 06:51:42 06:55:52 23° 95° (E) 06:59:59 437.490
LilacSat-2 30 Aug 06:54:23 06:57:12 20° 94° (E) 07:00:00 437.200
NOAA 15 30 Aug 06:54:30 06:59:13 32° 97° (E) 07:03:54 137.62
CUTE-I 30 Aug 07:02:19 07:06:55 29° 96° (E) 07:11:30 437.470
PHONESAT 2.4 30 Aug 07:02:25 07:04:32 18° 211° (SSW) 07:06:38 2401.200-2431.200
CUBESAT XI-V 30 Aug 07:02:29 07:05:29 17° 267° (W) 07:08:32 437.345
DOVE 4 30 Aug 07:06:19 07:08:46 14° 89° (E) 07:11:09 437.250
AO-85 30 Aug 07:07:14 07:10:37 17° 315° (NW) 07:13:53 145.980
GOMX 1 30 Aug 07:11:46 07:16:47 39° 96° (E) 07:21:30 467.674
Cosmos 2504 30 Aug 07:16:39 07:24:18 40° 88° (E) 07:31:30 435.465 / 435.565
ISS 30 Aug 07:16:43 07:18:42 15° 129° (SE) 07:20:42 145.825
AO-7 30 Aug 07:38:20 07:42:49 16° 310° (NW) 07:47:19 29.400- 29.500
Cosmos 2491 30 Aug 07:38:31 07:45:27 27° 278° (W) 07:52:25 435.465 / 435.565
STRAND 1 30 Aug 07:49:37 07:54:42 77° 75° (ENE) 07:59:48 437.568
BRITE-PL 30 Aug 07:49:44 07:55:06 43° 289° (WNW) 08:00:16 437.365/2234.400
HORYU 2 30 Aug 08:01:20 08:02:58 12° 297° (WNW) 08:04:35 437.375
NOAA 18 30 Aug 08:05:23 08:10:52 84° 285° (WNW) 08:16:19 137.9125
SO-50 30 Aug 08:19:13 08:23:39 45° 54° (NE) 08:27:57 436.795
RS-15 30 Aug 08:20:27 08:30:15 26° 28° (NNE) 08:39:58 29.354- 29.394
LilacSat-2 30 Aug 08:28:23 08:31:27 24° 289° (WNW) 08:34:30 437.200
Cubesat XI-IV 30 Aug 08:31:05 08:36:02 41° 290° (WNW) 08:41:00 437.490
SEEDS 30 Aug 08:32:36 08:34:50 14° 92° (E) 08:37:03 437.485
NOAA 15 30 Aug 08:34:18 08:38:53 30° 293° (WNW) 08:43:28 137.62
PRISM 30 Aug 08:39:29 08:42:49 24° 69° (ENE) 08:46:09 437.425
HO-68 30 Aug 08:40:06 08:46:31 35° 97° (E) 08:52:54 435.675
DOVE 4 30 Aug 08:42:01 08:46:55 57° 286° (WNW) 08:51:29 437.250
CUTE-I 30 Aug 08:42:14 08:46:55 33° 292° (WNW) 08:51:35 437.470
GOMX 1 30 Aug 08:50:18 08:54:33 24° 294° (WNW) 08:58:37 467.674
YUBILEINY 30 Aug 08:50:51 08:57:20 22° 293° (WNW) 09:03:52 435.215
ISS 30 Aug 08:51:40 08:54:52 49° 325° (NW) 08:58:05 145.825
AAUSAT CUBESAT 2 30 Aug 08:55:36 08:57:42 13° 92° (E) 08:59:46 437.432
CANX-2 30 Aug 08:58:26 09:02:33 48° 99° (E) 09:06:40 2200.000
BEESAT 2 30 Aug 09:00:17 09:02:06 13° 109° (ESE) 09:03:56 435.950
CINEMA 3 30 Aug 09:02:02 09:06:27 61° 100° (E) 09:10:39 145.822/145.860
CUBEBUG 2 30 Aug 09:02:05 09:04:27 15° 92° (E) 09:06:47 437.445
CUTE 1.7 + AOD 2 30 Aug 09:03:58 09:08:05 48° 99° (E) 09:12:11 437.475
COMPASS 1 30 Aug 09:05:28 09:08:49 23° 95° (E) 09:12:10 437.405
Cosmos 2504 30 Aug 09:09:54 09:17:36 39° 285° (WNW) 09:24:52 435.465 / 435.565
BEESAT 3 30 Aug 09:10:33 09:14:07 35° 115° (ESE) 09:17:43 437.485
AIST 1 30 Aug 09:19:41 09:23:45 41° 92° (E) 09:27:53
STRAND 1 30 Aug 09:33:10 09:34:24 11° 270° (W) 09:35:38 437.568
NOAA 18 30 Aug 09:49:15 09:50:39 11° 302° (WNW) 09:52:02 137.9125
TIGRISAT 30 Aug 09:51:55 09:54:47 17° 66° (ENE) 09:57:37 435.000
SO-50 30 Aug 10:00:43 10:03:42 17° 251° (WSW) 10:06:40 436.795
CUSAT 1 30 Aug 10:01:36 10:07:54 38° 75° (ENE) 10:15:03 437.405
Oscar 11 30 Aug 10:02:01 10:05:51 31° 97° (E) 10:09:40 145.826/435.025
SEEDS 30 Aug 10:06:43 10:10:43 43° 287° (WNW) 10:14:43 437.485
DELFI C3 30 Aug 10:09:47 10:11:58 14° 92° (E) 10:14:08 145.870
FUNcube-1 30 Aug 10:13:23 10:17:14 37° 98° (E) 10:21:05 145.935
PRISM 30 Aug 10:14:42 10:18:01 24° 264° (W) 10:21:22 437.425
UNISAT 6 30 Aug 10:20:04 10:24:12 35° 71° (ENE) 10:28:17 437.425
HO-68 30 Aug 10:27:36 10:34:16 43° 294° (WNW) 10:40:53 435.675
UWE-3 30 Aug 10:28:29 10:32:40 79° 283° (WNW) 10:36:47 435.000/436.395/437.385
AAUSAT CUBESAT 2 30 Aug 10:29:24 10:33:22 44° 287° (WNW) 10:37:20 437.432
ISS 30 Aug 10:30:31 10:31:58 12° 343° (NNW) 10:33:24 145.825
RS-15 30 Aug 10:33:08 10:45:33 71° 55° (NE) 10:57:39 29.354- 29.394
BEESAT 2 30 Aug 10:35:40 10:39:28 47° 304° (NW) 10:43:20 435.950
CANX-2 30 Aug 10:35:48 10:37:59 14° 294° (WNW) 10:40:10 2200.000
ZACube-1 30 Aug 10:36:21 10:40:30 79° 102° (ESE) 10:44:38 437.345
CUBEBUG 2 30 Aug 10:37:20 10:41:16 39° 287° (WNW) 10:45:07 437.445
COMPASS 1 30 Aug 10:40:49 10:44:19 26° 290° (WNW) 10:47:48 437.405
CUTE 1.7 + AOD 2 30 Aug 10:41:18 10:43:29 14° 294° (WNW) 10:45:41 437.475
CINEMA 3 30 Aug 10:41:26 10:42:58 12° 297° (WNW) 10:44:28 145.822/145.860
BEESAT 3 30 Aug 10:49:00 10:51:53 19° 311° (NW) 10:54:47 437.485
ANTELSAT 30 Aug 10:56:23 11:00:59 87° 71° (ENE) 11:05:30 437.575/2403.000
HUMSAT D 30 Aug 10:57:21 11:00:43 24° 96° (E) 11:04:05 437.325/437.525
AIST 1 30 Aug 10:59:00 11:01:33 15° 288° (WNW) 11:04:09
QB50P2 30 Aug 11:00:46 11:02:58 14° 65° (ENE) 11:05:10 145.880/145.840
PCSat 30 Aug 11:01:16 11:05:37 25° 107° (ESE) 11:10:00 145.827
POLYITAN 1 30 Aug 11:03:13 11:05:29 14° 65° (ENE) 11:07:42 437.675
NANOSAT C BR1 30 Aug 11:08:47 11:11:13 15° 66° (ENE) 11:13:40 145.865
GONETS M04 30 Aug 11:09:36 11:15:55 23° 80° (E) 11:22:16
JUGNU 30 Aug 11:10:49 11:12:36 11° 174° (S) 11:14:24 437.505
DANDE 30 Aug 11:25:37 11:31:28 68° 81° (E) 11:38:56 436.750
TIGRISAT 30 Aug 11:26:42 11:31:07 45° 261° (W) 11:35:27 435.000
AIST 2 30 Aug 11:35:02 11:38:24 25° 112° (ESE) 11:41:48 435.215
BUGSAT 1 30 Aug 11:37:05 11:38:48 12° 64° (ENE) 11:40:31 437.445
Oscar 11 30 Aug 11:38:32 11:41:47 21° 292° (WNW) 11:45:02 145.826/435.025
DELFI C3 30 Aug 11:43:12 11:46:57 39° 287° (WNW) 11:50:41 145.870
CUSAT 1 30 Aug 11:43:28 11:49:52 42° 268° (W) 11:57:09 437.405
FUNcube-1 30 Aug 11:50:37 11:53:11 16° 293° (WNW) 11:55:44 145.935
QB50P1 30 Aug 11:52:40 11:56:47 49° 74° (ENE) 12:00:55 145.935-145.965
UNISAT 6 30 Aug 11:57:31 12:00:57 21° 265° (W) 12:04:21 437.425
POPSAT HIP 1 30 Aug 12:02:52 12:07:05 64° 75° (ENE) 12:11:20 437.405
Cosmos 2499 30 Aug 12:05:21 12:12:46 41° 89° (E) 12:19:43 435.465 / 435.565
JAS-2 30 Aug 12:06:04 12:10:46 35° 68° (ENE) 12:15:46 435.910
AUBIESAT-1 30 Aug 12:11:47 12:14:53 23° 99° (E) 12:17:49 437.475
M-CUBED/EXP-1 PRIME 30 Aug 12:19:44 12:23:27 36° 102° (ESE) 12:26:51 437.505
AISAT 30 Aug 12:22:01 12:25:13 19° 94° (E) 12:28:23 437.250
ESTCUBE 1 30 Aug 12:25:27 12:29:43 39° 98° (E) 12:33:57 437.505/2401.250
DUCHIFAT 1 30 Aug 12:26:55 12:31:09 74° 258° (WSW) 12:35:25 145.980
HUMSAT D 30 Aug 12:32:58 12:36:14 23° 290° (WNW) 12:39:30 437.325/437.525
QB50P2 30 Aug 12:34:12 12:38:20 49° 260° (W) 12:42:30 145.880/145.840
POLYITAN 1 30 Aug 12:36:42 12:40:50 48° 260° (W) 12:45:00 437.675
NANOSAT C BR1 30 Aug 12:42:29 12:46:34 44° 261° (W) 12:50:39 145.865
PCSat 30 Aug 12:43:39 12:48:45 42° 304° (NW) 12:53:54 145.827
RS-15 30 Aug 12:46:45 12:57:05 33° 256° (WSW) 13:07:14 29.354- 29.394
JUGNU 30 Aug 12:58:44 13:00:43 12° 185° (S) 13:02:42 437.505
CUBEBUG 1 30 Aug 13:02:07 13:06:33 66° 102° (ESE) 13:10:53 437.445
GONETS M04 30 Aug 13:03:06 13:11:49 71° 279° (W) 13:20:38
SPROUT 30 Aug 13:05:49 13:09:30 28° 96° (E) 13:13:09 437.525
VELOX 1 30 Aug 13:08:04 13:12:30 60° 101° (ESE) 13:16:52 145.980
BUGSAT 1 30 Aug 13:09:29 13:13:39 56° 259° (W) 13:17:51 437.445
DANDE 30 Aug 13:09:49 13:14:00 19° 270° (W) 13:18:49 436.750
AIST 2 30 Aug 13:13:14 13:16:46 27° 309° (NW) 13:20:21 435.215
DX 1 30 Aug 13:15:02 13:19:16 46° 100° (E) 13:23:28 434.975-435.025
50 SAT 30 Aug 13:15:46 13:19:25 83° 101° (E) 13:23:05 437.505
QB50P1 30 Aug 13:30:55 13:32:48 13° 268° (W) 13:34:44 145.935-145.965
ISS 30 Aug 13:44:55 13:47:14 18° 24° (NNE) 13:49:34 145.825
AUBIESAT-1 30 Aug 13:46:09 13:49:16 23° 297° (WNW) 13:52:12 437.475
O/OREOS (USA 219) 30 Aug 13:47:11 13:51:32 54° 107° (ESE) 13:55:57 437.305
UKube-1 30 Aug 13:49:29 13:53:51 90° 286° (WNW) 13:58:10 .
JAS-2 30 Aug 13:51:41 13:55:58 25° 266° (W) 14:00:29 435.910
Gurwin Techsat 1B 30 Aug 13:54:11 13:58:51 32° 68° (ENE) 14:03:32 435.225
M-CUBED/EXP-1 PRIME 30 Aug 13:55:10 13:57:36 16° 300° (WNW) 13:59:55 437.505
AISAT 30 Aug 13:57:42 14:01:46 35° 289° (WNW) 14:05:48 437.250
Oscar 19 30 Aug 13:57:43 14:02:51 76° 75° (ENE) 14:08:03 437.125/150
AO-85 30 Aug 13:58:22 14:02:21 37° 53° (NE) 14:06:03 145.980
Cosmos 2499 30 Aug 13:58:33 14:05:51 36° 285° (WNW) 14:12:42 435.465 / 435.565
ESTCUBE 1 30 Aug 14:03:02 14:06:13 19° 293° (WNW) 14:09:23 437.505/2401.250
CUBEBUG 1 30 Aug 14:40:47 14:42:13 11° 297° (WNW) 14:43:39 437.445
SRMSAT 30 Aug 14:41:24 14:43:34 12° 181° (S) 14:45:44 437.500
SPROUT 30 Aug 14:41:56 14:45:17 23° 291° (WNW) 14:48:38 437.525
VELOX 1 30 Aug 14:46:30 14:48:25 13° 297° (WNW) 14:50:19 145.980
TISAT 1 30 Aug 14:48:47 14:53:00 88° 90° (E) 14:57:10 437.305
AO-7 30 Aug 14:49:24 14:56:16 29° 58° (ENE) 15:03:06 29.400- 29.500
DX 1 30 Aug 14:52:29 14:55:03 15° 295° (WNW) 14:57:35 434.975-435.025
GONETS M04 30 Aug 15:06:53 15:10:23 13° 301° (WNW) 15:13:56
ITAMSAT 1 30 Aug 15:18:49 15:23:54 61° 73° (ENE) 15:29:01 435.822/435.867
ITUPSAT 1 30 Aug 15:19:47 15:24:03 32° 97° (E) 15:28:18 437.325
ISS 30 Aug 15:20:44 15:24:01 71° 221° (SW) 15:27:15 145.825
O/OREOS (USA 219) 30 Aug 15:28:44 15:31:18 15° 304° (NW) 15:33:54 437.305
Gurwin Techsat 1B 30 Aug 15:34:10 15:38:45 29° 264° (W) 15:43:21 435.225
AO-85 30 Aug 15:39:44 15:42:23 17° 251° (WSW) 15:44:56 145.980
Oscar 19 30 Aug 15:41:08 15:42:42 11° 270° (W) 15:44:17 437.125/150
SWISSCUBE 30 Aug 15:50:43 15:55:30 79° 103° (ESE) 16:00:16 437.505
MOZHAYETS 4 30 Aug 15:55:50 15:56:31 10° 90° (E) 15:57:11
BEESAT 30 Aug 16:07:30 16:12:16 78° 285° (WNW) 16:17:01 436.000
AO-7 30 Aug 16:40:11 16:48:27 63° 256° (WSW) 16:56:44 29.400- 29.500
Cosmos 2491 30 Aug 16:50:04 16:52:52 12° 75° (ENE) 16:55:40 435.465 / 435.565
ITUPSAT 1 30 Aug 16:57:51 17:01:43 25° 293° (WNW) 17:05:34 437.325
KKS-1 30 Aug 17:00:27 17:04:40 41° 99° (E) 17:08:51 437.445
ITAMSAT 1 30 Aug 17:00:57 17:03:45 15° 268° (W) 17:06:33 435.822/435.867
YUBILEINY 30 Aug 17:03:31 17:11:19 34° 72° (ENE) 17:19:01 435.215
HORYU 2 30 Aug 17:18:54 17:23:11 48° 73° (ENE) 17:27:28 437.375
BRITE-PL 30 Aug 17:21:22 17:25:10 22° 65° (ENE) 17:29:10 437.365/2234.400
CUBESAT XI-V 30 Aug 17:23:34 17:25:22 12° 90° (E) 17:27:11 437.345
STARS 30 Aug 17:27:27 17:31:34 38° 98° (E) 17:35:38 437.465
MOZHAYETS 4 30 Aug 17:29:32 17:34:06 68° 285° (WNW) 17:38:39
BEESAT 3 30 Aug 17:29:41 17:32:08 16° 47° (NE) 17:34:34 437.485
SWISSCUBE 30 Aug 17:31:20 17:32:36 11° 299° (WNW) 17:33:53 437.505
NOAA 18 30 Aug 17:51:30 17:55:32 21° 63° (ENE) 17:59:34 137.9125
DOVE 4 30 Aug 18:09:58 18:12:45 15° 63° (ENE) 18:15:34 437.250
Cubesat XI-IV 30 Aug 18:12:04 18:16:48 33° 68° (ENE) 18:21:33 437.490
NOAA 15 30 Aug 18:12:59 18:17:56 44° 70° (ENE) 18:22:55 137.62
GOMX 1 30 Aug 18:17:38 18:22:19 36° 70° (ENE) 18:27:13 467.674
CUTE-I 30 Aug 18:22:33 18:27:31 42° 70° (ENE) 18:32:30 437.470
KKS-1 30 Aug 18:37:56 18:40:53 18° 294° (WNW) 18:43:50 437.445
Cosmos 2491 30 Aug 18:39:22 18:48:02 74° 93° (E) 18:56:45 435.465 / 435.565
BEESAT 2 30 Aug 18:54:46 18:58:44 58° 57° (ENE) 19:02:41 435.950
HORYU 2 30 Aug 18:57:32 18:59:58 14° 267° (W) 19:02:23 437.375
CUBESAT XI-V 30 Aug 18:58:28 19:03:07 62° 286° (WNW) 19:07:46 437.345
BRITE-PL 30 Aug 18:58:38 19:03:15 42° 263° (W) 19:08:17 437.365/2234.400
YUBILEINY 30 Aug 19:00:00 19:08:17 49° 271° (W) 19:16:31 435.215
Cosmos 2504 30 Aug 19:03:27 19:10:38 69° 81° (E) 19:17:48 435.465 / 435.565
STARS 30 Aug 19:04:38 19:07:37 18° 294° (WNW) 19:10:34 437.465
BEESAT 3 30 Aug 19:06:13 19:10:04 49° 243° (WSW) 19:13:52 437.485
LilacSat-2 30 Aug 19:07:53 19:11:41 62° 260° (W) 19:15:28 437.200
HO-68 30 Aug 19:08:13 19:13:35 23° 59° (ENE) 19:18:58 435.675
NOAA 18 30 Aug 19:30:24 19:35:47 51° 259° (W) 19:41:10 137.9125
DOVE 4 30 Aug 19:44:35 19:49:44 72° 258° (WSW) 19:55:05 437.250
CANX-2 30 Aug 19:49:58 19:53:32 28° 71° (ENE) 19:57:08 2200.000
PCSat 30 Aug 19:50:27 19:54:03 18° 46° (NE) 19:57:39 145.827
Cubesat XI-IV 30 Aug 19:52:15 19:56:50 29° 264° (W) 20:01:26 437.490
NOAA 15 30 Aug 19:53:56 19:57:52 21° 266° (W) 20:01:50 137.62
CUTE 1.7 + AOD 2 30 Aug 19:55:24 19:58:57 28° 70° (ENE) 20:02:32 437.475
COMPASS 1 30 Aug 19:56:07 19:58:07 13° 65° (ENE) 20:00:08 437.405
GOMX 1 30 Aug 19:56:07 20:00:24 27° 267° (W) 20:04:54 467.674
AIST 2 30 Aug 19:58:12 20:00:22 14° 44° (NE) 20:02:32 435.215
CUBEBUG 2 30 Aug 19:59:21 20:01:25 13° 65° (ENE) 20:03:28 437.445
CINEMA 3 30 Aug 20:01:07 20:05:56 49° 73° (ENE) 20:10:42 145.822/145.860
STRAND 1 30 Aug 20:02:02 20:06:27 29° 96° (E) 20:10:52 437.568
CUTE-I 30 Aug 20:03:35 20:07:42 23° 266° (W) 20:11:50 437.470
BEESAT 2 30 Aug 20:35:05 20:36:02 11° 252° (WSW) 20:36:58 435.950
Cosmos 2491 30 Aug 20:39:16 20:45:43 22° 293° (WNW) 20:52:14 435.465 / 435.565
HO-68 30 Aug 20:53:31 21:00:39 67° 257° (WSW) 21:07:50 435.675
Oscar 11 30 Aug 20:55:49 20:59:00 20° 68° (ENE) 21:02:11 145.826/435.025
SEEDS 30 Aug 20:56:21 21:00:30 80° 258° (WSW) 21:04:41 437.485
Cosmos 2504 30 Aug 20:58:40 21:03:10 18° 279° (W) 21:07:40 435.465 / 435.565
AIST 1 30 Aug 21:05:19 21:09:41 70° 266° (W) 21:14:01
FUNcube-1 30 Aug 21:07:28 21:11:07 26° 70° (ENE) 21:14:43 145.935
AAUSAT CUBESAT 2 30 Aug 21:17:32 21:21:38 85° 258° (WSW) 21:25:47 437.432
UWE-3 30 Aug 21:23:16 21:27:48 68° 75° (ENE) 21:32:14 435.000/436.395/437.385
CANX-2 30 Aug 21:26:08 21:29:22 22° 265° (W) 21:32:38 2200.000
COMPASS 1 30 Aug 21:29:17 21:33:15 46° 261° (W) 21:37:15 437.405
ZACube-1 30 Aug 21:30:12 21:34:30 50° 74° (ENE) 21:38:43 437.345
CUTE 1.7 + AOD 2 30 Aug 21:31:31 21:34:46 22° 265° (W) 21:38:02 437.475
PCSat 30 Aug 21:32:36 21:38:01 72° 244° (WSW) 21:43:23 145.827
CUBEBUG 2 30 Aug 21:32:54 21:37:32 62° 260° (W) 21:42:03 437.445
AIST 2 30 Aug 21:35:07 21:39:17 67° 243° (WSW) 21:43:25 435.215
CINEMA 3 30 Aug 21:39:58 21:43:16 17° 268° (W) 21:46:32 145.822/145.860
STRAND 1 30 Aug 21:41:07 21:45:33 31° 292° (WNW) 21:49:59 437.568
HUMSAT D 30 Aug 21:48:11 21:50:33 15° 67° (ENE) 21:52:55 437.325/437.525
PRISM 30 Aug 21:56:41 22:00:45 48° 100° (E) 22:04:47 437.425
DELFI C3 30 Aug 22:26:56 22:30:52 87° 251° (WSW) 22:34:50 145.870
Oscar 11 30 Aug 22:31:04 22:34:54 32° 263° (W) 22:38:46 145.826/435.025
SO-50 30 Aug 22:32:31 22:36:13 22° 111° (ESE) 22:39:54 436.795
FUNcube-1 30 Aug 22:43:36 22:47:16 25° 264° (W) 22:50:55 145.935
ANTELSAT 30 Aug 22:50:35 22:53:37 19° 94° (E) 22:56:37 437.575/2403.000
AUBIESAT-1 30 Aug 22:55:06 22:59:05 29° 65° (ENE) 23:03:02 437.475
M-CUBED/EXP-1 PRIME 30 Aug 23:03:21 23:07:47 43° 67° (ENE) 23:12:14 437.505
UWE-3 30 Aug 23:04:24 23:04:37 10° 270° (W) 23:04:49 435.000/436.395/437.385
CUSAT 1 30 Aug 23:05:58 23:08:10 18° 86° (E) 23:10:41 437.405
ZACube-1 30 Aug 23:08:54 23:11:01 13° 268° (W) 23:13:07 437.345
GONETS M04 30 Aug 23:15:17 23:23:58 56° 78° (ENE) 23:32:34
AISAT 30 Aug 23:18:39 23:21:14 15° 65° (ENE) 23:23:50 437.250
TIGRISAT 30 Aug 23:19:43 23:23:43 38° 98° (E) 23:27:40 435.000
HUMSAT D 30 Aug 23:21:54 23:25:49 41° 261° (W) 23:29:43 437.325/437.525
ESTCUBE 1 30 Aug 23:23:38 23:27:32 30° 70° (ENE) 23:31:27 437.505/2401.250
